timestamp,wind_dir_avg,wind_spd_avg,wind_spd_max_dir,wind_spd_gust,battery_voltage,lat,long
2021-07-10 00:04:01+00:00,227.0,5.06,227.0,6.23,13.21,47.59359,-54.27349
2021-07-10 00:14:01+00:00,219.0,5.64,219.0,6.31,12.73,47.59359,-54.27349
2021-07-10 00:24:01+00:00,223.0,5.65,227.0,7.25,12.73,47.59359,-54.27349
2021-07-10 00:34:01+00:00,211.0,7.54,215.0,8.88,12.73,47.59359,-54.27349
2021-07-10 00:44:01+00:00,214.0,8.33,213.0,9.32,12.73,47.59359,-54.27349
2021-07-10 00:54:01+00:00,228.0,6.4,226.0,7.15,12.73,47.59359,-54.27349
2021-07-10 01:04:01+00:00,228.0,7.85,216.0,9.59,12.73,47.59359,-54.27349
2021-07-10 01:14:01+00:00,228.0,8.13,227.0,9.69,12.65,47.59359,-54.27349
2021-07-10 01:24:01+00:00,228.0,8.03,224.0,9.38,12.65,47.59359,-54.27349
2021-07-10 01:34:01+00:00,231.0,7.56,221.0,9.52,12.65,47.59359,-54.27349
2021-07-10 01:44:01+00:00,226.0,8.48,231.0,9.78,12.65,47.59359,-54.27349
2021-07-10 01:54:01+00:00,225.0,8.06,218.0,10.54,12.65,47.59359,-54.27349
2021-07-10 02:04:01+00:00,231.0,5.93,223.0,7.24,12.65,47.59359,-54.27349
2021-07-10 02:14:01+00:00,216.0,8.28,209.0,10.19,12.65,47.59359,-54.27349
2021-07-10 02:24:01+00:00,224.0,7.59,216.0,10.03,12.65,47.59359,-54.27349
2021-07-10 02:34:01+00:00,218.0,10.49,219.0,12.75,12.65,47.59359,-54.27349
2021-07-10 02:44:01+00:00,221.0,9.39,215.0,11.31,12.65,47.59359,-54.27349
2021-07-10 02:54:01+00:00,231.0,9.49,233.0,11.15,12.65,47.59359,-54.27349
2021-07-10 03:04:01+00:00,228.0,9.56,231.0,11.1,12.65,47.59359,-54.27349
2021-07-10 03:14:00+00:00,224.0,11.18,224.0,12.6,12.57,47.59359,-54.27349
2021-07-10 03:24:00+00:00,225.0,9.85,224.0,11.18,12.57,47.59359,-54.27349
2021-07-10 03:34:00+00:00,225.0,9.31,221.0,10.39,12.57,47.59359,-54.27349
2021-07-10 03:44:00+00:00,223.0,9.34,225.0,10.35,12.57,47.59359,-54.27349
2021-07-10 03:54:00+00:00,224.0,9.65,221.0,10.68,12.57,47.59359,-54.27349
2021-07-10 04:04:00+00:00,228.0,8.86,233.0,10.41,12.57,47.59359,-54.27349
2021-07-10 04:14:00+00:00,225.0,10.11,228.0,11.65,12.57,47.59359,-54.27349
2021-07-10 04:24:00+00:00,227.0,9.03,227.0,10.27,12.57,47.59359,-54.27349
2021-07-10 04:34:00+00:00,227.0,10.17,230.0,11.48,12.57,47.59359,-54.27349
2021-07-10 04:44:00+00:00,221.0,9.38,219.0,11.88,12.57,47.59359,-54.27349
2021-07-10 04:54:00+00:00,227.0,9.86,217.0,11.45,12.57,47.59359,-54.27349
2021-07-10 05:04:00+00:00,219.0,9.83,215.0,11.38,12.57,47.59359,-54.27349
2021-07-10 05:14:00+00:00,226.0,10.13,226.0,12.12,12.57,47.59359,-54.27349
2021-07-10 05:24:00+00:00,226.0,9.1,227.0,11.16,12.57,47.59359,-54.27349
2021-07-10 05:34:00+00:00,222.0,9.06,212.0,11.17,12.57,47.59359,-54.27349
2021-07-10 05:44:00+00:00,218.0,10.38,214.0,12.31,12.57,47.59359,-54.27349
2021-07-10 05:54:00+00:00,218.0,9.64,219.0,11.6,12.57,47.59359,-54.27349
2021-07-10 06:04:00+00:00,215.0,8.86,214.0,9.77,12.57,47.59359,-54.27349
2021-07-10 06:14:01+00:00,210.0,9.03,211.0,10.09,12.49,47.59359,-54.27349
2021-07-10 06:24:01+00:00,212.0,9.5,214.0,10.91,12.49,47.59359,-54.27349
2021-07-10 06:34:01+00:00,214.0,8.52,214.0,9.63,12.49,47.59359,-54.27349
2021-07-10 06:44:01+00:00,217.0,7.46,213.0,8.72,12.49,47.59359,-54.27349
2021-07-10 06:54:01+00:00,222.0,5.99,219.0,7.19,12.49,47.59359,-54.27349
2021-07-10 07:04:01+00:00,219.0,7.35,220.0,8.42,12.49,47.59359,-54.27349
2021-07-10 07:14:00+00:00,221.0,7.56,224.0,8.72,12.41,47.59359,-54.27349
2021-07-10 07:24:00+00:00,213.0,8.28,216.0,9.06,12.41,47.59359,-54.27349
2021-07-10 07:34:00+00:00,210.0,7.9,208.0,8.9,12.41,47.59359,-54.27349
2021-07-10 07:44:00+00:00,203.0,6.05,209.0,7.28,12.41,47.59359,-54.27349
2021-07-10 07:54:00+00:00,207.0,6.8,205.0,8.26,12.41,47.59359,-54.27349
2021-07-10 08:04:00+00:00,192.0,6.57,189.0,7.57,12.41,47.59359,-54.27349
2021-07-10 08:14:01+00:00,196.0,8.42,199.0,9.28,12.41,47.59359,-54.27349
2021-07-10 08:24:01+00:00,207.0,7.3,213.0,8.46,12.41,47.59359,-54.27349
2021-07-10 08:34:01+00:00,206.0,6.67,207.0,7.96,12.41,47.59359,-54.27349
2021-07-10 08:44:01+00:00,221.0,6.88,221.0,8.55,12.41,47.59359,-54.27349
2021-07-10 08:54:01+00:00,234.0,6.3,230.0,7.66,12.41,47.59359,-54.27349
2021-07-10 09:04:01+00:00,229.0,6.37,230.0,7.72,12.41,47.59359,-54.27349
2021-07-10 09:14:01+00:00,220.0,8.02,219.0,10.12,12.41,47.59359,-54.27349
2021-07-10 09:24:01+00:00,218.0,6.9,208.0,8.6,12.41,47.59359,-54.27349
2021-07-10 09:34:01+00:00,204.0,7.67,204.0,9.52,12.41,47.59359,-54.27349
2021-07-10 09:44:01+00:00,209.0,9.11,211.0,10.36,12.41,47.59359,-54.27349
2021-07-10 09:54:01+00:00,209.0,9.08,214.0,10.22,12.41,47.59359,-54.27349
2021-07-10 10:04:01+00:00,217.0,8.01,216.0,9.71,12.41,47.59359,-54.27349
2021-07-10 10:14:01+00:00,219.0,6.62,224.0,7.26,12.57,47.59359,-54.27349
2021-07-10 10:24:01+00:00,227.0,6.96,220.0,8.65,12.57,47.59359,-54.27349
2021-07-10 10:34:01+00:00,220.0,7.89,218.0,8.7,12.57,47.59359,-54.27349
2021-07-10 10:44:01+00:00,216.0,8.66,216.0,10.23,12.57,47.59359,-54.27349
2021-07-10 10:54:01+00:00,223.0,8.54,223.0,10.1,12.57,47.59359,-54.27349
2021-07-10 11:04:01+00:00,221.0,7.4,221.0,8.36,12.57,47.59359,-54.27349
2021-07-10 11:14:01+00:00,225.0,8.52,223.0,10.51,13.21,47.59359,-54.27349
2021-07-10 11:24:01+00:00,233.0,8.57,231.0,11.11,13.21,47.59359,-54.27349
2021-07-10 11:34:01+00:00,221.0,9.72,222.0,10.85,13.21,47.59359,-54.27349
2021-07-10 11:44:01+00:00,226.0,10.61,223.0,12.67,13.21,47.59359,-54.27349
2021-07-10 11:54:01+00:00,228.0,11.14,220.0,12.79,13.21,47.59359,-54.27349
2021-07-10 12:04:01+00:00,231.0,11.22,234.0,13.0,13.21,47.59359,-54.27349
2021-07-10 12:14:01+00:00,228.0,11.98,229.0,13.96,13.21,47.59359,-54.27349
2021-07-10 12:24:01+00:00,224.0,12.44,226.0,14.43,13.21,47.59359,-54.27349
2021-07-10 12:34:01+00:00,222.0,12.78,218.0,14.21,13.21,47.59359,-54.27349
2021-07-10 12:44:01+00:00,220.0,10.82,216.0,13.45,13.21,47.59359,-54.27349
2021-07-10 12:54:01+00:00,223.0,9.96,223.0,12.81,13.21,47.59359,-54.27349
2021-07-10 13:04:01+00:00,224.0,10.81,213.0,12.56,13.21,47.59359,-54.27349
2021-07-10 13:14:01+00:00,232.0,11.3,237.0,13.39,13.84,47.59359,-54.27349
2021-07-10 13:24:01+00:00,231.0,10.8,228.0,13.68,13.84,47.59359,-54.27349
2021-07-10 13:34:01+00:00,230.0,9.99,230.0,11.89,13.84,47.59359,-54.27349
2021-07-10 13:44:01+00:00,234.0,9.65,232.0,11.17,13.84,47.59359,-54.27349
2021-07-10 13:54:01+00:00,229.0,10.38,229.0,12.23,13.84,47.59359,-54.27349
2021-07-10 14:04:01+00:00,228.0,10.55,230.0,12.53,13.84,47.59359,-54.27349
2021-07-10 14:14:01+00:00,221.0,12.14,219.0,14.18,13.84,47.59359,-54.27349
2021-07-10 14:24:01+00:00,229.0,11.11,229.0,13.01,13.84,47.59359,-54.27349
2021-07-10 14:34:01+00:00,242.0,8.93,239.0,10.49,13.84,47.59359,-54.27349
2021-07-10 14:44:01+00:00,229.0,8.6,230.0,10.42,13.84,47.59359,-54.27349
2021-07-10 14:54:01+00:00,224.0,10.64,225.0,11.89,13.84,47.59359,-54.27349
2021-07-10 15:04:01+00:00,235.0,8.69,229.0,11.08,13.84,47.59359,-54.27349
2021-07-10 15:14:01+00:00,235.0,8.6,236.0,10.47,13.84,47.59359,-54.27349
2021-07-10 15:24:01+00:00,231.0,10.21,231.0,12.44,13.84,47.59359,-54.27349
2021-07-10 15:34:01+00:00,237.0,9.58,240.0,13.29,13.84,47.59359,-54.27349
2021-07-10 15:44:01+00:00,243.0,10.66,243.0,11.86,13.84,47.59359,-54.27349
2021-07-10 15:54:01+00:00,223.0,12.38,221.0,16.33,13.84,47.59359,-54.27349
2021-07-10 16:04:01+00:00,232.0,12.71,237.0,15.57,13.84,47.59359,-54.27349
2021-07-10 16:14:01+00:00,228.0,13.33,233.0,15.7,13.76,47.59359,-54.27349
2021-07-10 16:24:01+00:00,228.0,12.87,234.0,16.07,13.76,47.59359,-54.27349
2021-07-10 16:34:01+00:00,223.0,12.0,226.0,13.39,13.76,47.59359,-54.27349
2021-07-10 16:44:01+00:00,219.0,11.87,211.0,15.18,13.76,47.59359,-54.27349
2021-07-10 16:54:01+00:00,216.0,13.49,210.0,15.19,13.76,47.59359,-54.27349
2021-07-10 17:04:01+00:00,216.0,13.37,216.0,15.95,13.76,47.59359,-54.27349
2021-07-10 17:14:01+00:00,214.0,13.34,211.0,15.72,13.84,47.59359,-54.27349
2021-07-10 17:24:01+00:00,216.0,14.12,214.0,17.07,13.84,47.59359,-54.27349
2021-07-10 17:34:01+00:00,216.0,13.82,211.0,16.61,13.84,47.59359,-54.27349
2021-07-10 17:44:01+00:00,214.0,14.87,213.0,17.93,13.84,47.59359,-54.27349
2021-07-10 17:54:01+00:00,208.0,13.54,211.0,15.47,13.84,47.59359,-54.27349
2021-07-10 18:04:01+00:00,207.0,16.04,206.0,17.57,13.84,47.59359,-54.27349
2021-07-10 18:14:01+00:00,209.0,14.05,209.0,15.8,13.76,47.59359,-54.27349
2021-07-10 18:24:01+00:00,213.0,14.73,209.0,19.03,13.76,47.59359,-54.27349
2021-07-10 18:34:01+00:00,211.0,15.87,214.0,18.98,13.76,47.59359,-54.27349
2021-07-10 18:44:01+00:00,212.0,14.94,218.0,17.69,13.76,47.59359,-54.27349
2021-07-10 18:54:01+00:00,212.0,16.03,210.0,17.87,13.76,47.59359,-54.27349
2021-07-10 19:04:01+00:00,214.0,13.48,211.0,17.97,13.76,47.59359,-54.27349
2021-07-10 19:14:01+00:00,214.0,12.16,219.0,13.82,13.6,47.59359,-54.27349
2021-07-10 19:24:01+00:00,214.0,9.92,216.0,10.98,13.6,47.59359,-54.27349
2021-07-10 19:34:01+00:00,215.0,10.77,213.0,11.83,13.6,47.59359,-54.27349
2021-07-10 19:44:01+00:00,216.0,9.86,224.0,11.24,13.6,47.59359,-54.27349
2021-07-10 19:54:01+00:00,217.0,9.36,217.0,10.97,13.6,47.59359,-54.27349
2021-07-10 20:04:01+00:00,223.0,9.69,227.0,11.68,13.6,47.59359,-54.27349
2021-07-10 20:14:01+00:00,219.0,8.35,225.0,10.14,13.68,47.59359,-54.27349
2021-07-10 20:24:01+00:00,215.0,9.77,220.0,10.81,13.68,47.59359,-54.27349
2021-07-10 20:34:01+00:00,216.0,9.92,215.0,10.99,13.68,47.59359,-54.27349
2021-07-10 20:44:01+00:00,215.0,8.35,212.0,9.14,13.68,47.59359,-54.27349
2021-07-10 20:54:01+00:00,218.0,8.63,219.0,10.41,13.68,47.59359,-54.27349
2021-07-10 21:04:01+00:00,218.0,8.68,216.0,9.42,13.68,47.59359,-54.27349
2021-07-10 21:14:01+00:00,234.0,8.16,240.0,9.44,13.37,47.59359,-54.27349
2021-07-10 21:24:01+00:00,234.0,7.98,223.0,10.06,13.37,47.59359,-54.27349
2021-07-10 21:34:01+00:00,235.0,7.28,241.0,8.09,13.37,47.59359,-54.27349
2021-07-10 21:44:01+00:00,231.0,6.59,230.0,7.23,13.37,47.59359,-54.27349
2021-07-10 21:54:01+00:00,227.0,8.66,222.0,9.68,13.37,47.59359,-54.27349
2021-07-10 22:04:01+00:00,230.0,8.71,232.0,10.53,13.37,47.59359,-54.27349
2021-07-10 22:14:01+00:00,229.0,7.94,229.0,9.48,13.29,47.59359,-54.27349
2021-07-10 22:24:01+00:00,218.0,7.52,215.0,8.34,13.29,47.59359,-54.27349
2021-07-10 22:34:01+00:00,218.0,7.36,222.0,8.33,13.29,47.59359,-54.27349
2021-07-10 22:44:01+00:00,217.0,7.06,217.0,7.52,13.29,47.59359,-54.27349
2021-07-10 22:54:01+00:00,219.0,6.66,230.0,8.5,13.29,47.59359,-54.27349
2021-07-10 23:04:01+00:00,221.0,6.19,214.0,7.32,13.29,47.59359,-54.27349
2021-07-10 23:14:01+00:00,224.0,6.26,224.0,6.77,12.81,47.59359,-54.27349
2021-07-10 23:24:01+00:00,226.0,7.51,228.0,8.13,12.81,47.59359,-54.27349
2021-07-10 23:34:01+00:00,231.0,6.94,232.0,7.66,12.81,47.59359,-54.27349
2021-07-10 23:44:01+00:00,228.0,7.24,227.0,8.0,12.81,47.59359,-54.27349
2021-07-10 23:54:01+00:00,222.0,7.95,213.0,9.12,12.81,47.59359,-54.27349
